Location: C�mpuri de-Sus
(45.9500°N, 22.5500°E)
Time: 04:41:52
(UTC+00:00)

Meteor 1-11 - Pass Details

Date: 24 October 2021
Orbit: 840 x 887 km, 81.2° (Epoch: 30 November)

Event Time Altitude Azimuth Distance (km) Brightness Sun altitude
Rises 16:50:18 0° 347° (NNW) 3,412 7.5 -14.9°
Reaches altitude 10° 16:52:43 10° 346° (NNW) 2,477 6.8 -15.3°
Maximum altitude 16:58:19 77° 262° (W) 877 4.4 -16.3°
Drops below altitude 10° 17:03:56 10° 177° (S) 2,484 6.6 -17.3°
Sets 17:06:22 0° 176° (S) 3,423 7.3 -17.7°
